Location: ?????????
(41.2233°N, 22.8272°E)
Time: 04:29:24
(UTC+00:00)

Daily predictions for brighter satellites

Satellite Brightness Start Highest point End
(mag) Time Altitude Azimuth Time Altitude Azimuth Time Altitude Azimuth
Cosmos 1943 Rocket 3.5 02:25:02 34° NE 02:25:02 34° NE 02:28:24 10° NNE
CENTAUR R/B 3.1 02:28:55 49° NE 02:28:55 49° NE 02:33:56 10° NE
Cosmos 2082 Rocket 4.3 02:33:43 16° SSE 02:33:43 16° SSE 02:34:50 10° SSE
NOSS 3-2 (A) 4.4 02:40:24 37° NNE 02:40:24 37° NNE 02:44:15 10° NNE
NOSS 3-2 (C) 3.5 02:46:05 65° E 02:46:05 65° E 02:51:40 10° NE
Cosmos 2344 3.5 02:53:31 59° NNW 02:53:31 59° NNW 03:00:37 10° NNE
Envisat 4.5 02:52:40 10° NNE 02:57:20 36° E 03:01:58 10° SSE
Meteor 2-3 Rocket 3.9 02:52:32 10° S 02:58:07 70° E 03:03:49 10° NNE
Cosmos 968 Rocket 3.7 03:02:25 50° SSE 03:03:35 67° ESE 03:08:41 10° NNE
USA 238 DEB 3.5 03:12:40 63° W 03:13:28 69° NW 03:20:16 10° NNE
USA 238 3.5 03:12:43 62° W 03:13:34 70° NW 03:20:22 10° NNE
Genesis I 4.1 03:14:31 47° ENE 03:14:31 47° ENE 03:18:19 10° SE
Cosmos 921 Rocket 4.1 03:13:45 31° NNE 03:15:18 43° ENE 03:19:33 10° SE
Meteor 1-26 Rocket 4.4 03:11:22 17° N 03:16:07 75° E 03:21:52 10° SSE
BREEZE-M DEB (TANK) 3.1 03:15:56 66° NNW 03:16:33 78° NNE 03:29:05 10° ESE
Gbstr 26 Del rocket 3.7 03:18:32 42° SSE 03:18:32 42° SSE 03:21:31 10° SE
Cosmos 1570 Rocket 3.9 03:21:57 66° WSW 03:21:57 66° WSW 03:26:57 10° S
USA 215 3.8 03:16:11 10° ESE 03:22:27 51° NNE 03:25:42 28° NNW
Cosmos 1816 Rocket 4.5 03:17:33 10° SSW 03:23:38 56° W 03:29:48 10° N
Cosmos 1812 4.0 03:21:51 23° NNE 03:23:44 39° ENE 03:27:21 10° SSE
Cosmos 2034 Rocket 4.0 03:24:11 53° W 03:24:21 53° W 03:30:25 10° SSW
Cosmos 1151 Rocket 4.1 03:24:41 10° N 03:28:49 44° ENE 03:33:00 10° SSE
Cosmos 1814 Rocket 4.5 03:32:11 41° SW 03:32:11 41° SW 03:36:04 10° S
Cosmos 2369 Rocket 2.1 03:31:34 10° SSW 03:37:09 89° WNW 03:42:47 10° NNE
Cosmos 1782 2.7 03:40:16 65° SW 03:40:16 65° SW 03:43:53 10° S
Meteor 1-31 Rocket 3.0 03:36:40 10° NNE 03:40:34 70° ESE 03:44:26 10° S
SJ-12 3.8 03:40:59 10° N 03:45:07 73° WNW 03:49:13 10° SSW
COSMO-SKYMED 1 2.5 03:41:05 10° SSE 03:45:25 87° ENE 03:48:36 18° NNW
Cosmos 1862 3.7 03:41:36 10° S 03:45:30 64° E 03:49:24 10° NNE
Cosmos 1634 Rocket 3.9 03:40:30 10° N 03:46:48 77° W 03:52:59 10° S
MOS 1-B Rocket 3.9 03:42:01 10° S 03:48:31 66° WSW 03:54:14 10° NNW
Tsikada Rocket 4.2 03:45:25 10° SSW 03:51:16 44° WNW 03:57:14 10° N
Cosmos 1867 3.9 03:50:15 37° W 03:51:31 44° WSW 03:56:37 10° S
Cosmos 2208 Rocket 4.4 03:52:17 35° WNW 03:53:50 43° WSW 03:58:53 10° S
H-2A R/B 2.7 03:50:37 10° N 03:54:15 53° WNW 03:57:54 10° SSW
Helios 1B 4.4 03:50:12 10° S 03:54:29 70° WSW 03:57:21 21° NNW
Cosmos 1656 Rocket 3.5 03:55:52 10° SSW 04:01:16 79° WNW 04:06:43 10° NNE
CZ-4B R/B 4.3 03:59:14 10° NNE 04:02:33 35° E 04:05:52 10° SSE
TSX-5 4.4 03:58:10 18° NNW 04:02:36 75° WSW 04:07:09 10° SSE
Cosmos 1503 Rocket 4.1 03:57:35 10° SSW 04:02:50 78° ESE 04:08:10 10° NNE
CZ-4B R/B 4.4 04:04:34 10° E 04:06:01 12° ENE 04:07:27 10° NE
CZ-2C R/B 2.7 04:01:06 10° S 04:06:33 61° W 04:11:55 10° NNW
Cosmos 1943 Rocket 3.1 04:06:39 25° WNW 04:06:57 25° NW 04:11:35 10° N
CZ-4C R/B 2.6 04:07:00 10° SSE 04:10:09 88° WSW 04:12:32 16° NNW
Cosmos 1486 Rocket 4.1 04:05:21 10° SW 04:10:31 52° WNW 04:15:42 10° N
Cosmos 2180 Rocket 4.5 04:10:45 10° N 04:16:57 89° E 04:23:05 10° S
CENTAUR R/B 3.5 04:16:08 21° WNW 04:18:38 26° NW 04:24:32 10° NNE
SL-8 R/B 4.2 04:16:23 21° NW 04:19:22 51° NNE 04:24:02 10° E
Cosmos 1515 Rocket 4.0 04:17:13 10° N 04:21:34 63° E 04:25:50 10° SSE
SJ 16-02 2.4 04:23:28 10° S 04:27:41 48° ESE 04:31:54 10° NNE
NOAA 11 4.1 04:23:08 10° N 04:28:37 74° WNW 04:34:04 10° SSW
NOAA 12 4.2 04:29:15 10° NNE 04:34:32 81° ESE 04:39:47 10° S
Meteor 2-8 Rocket 4.4 04:29:26 10° NNW 04:35:31 64° W 04:41:32 10° S
Envisat 3.8 04:31:57 10° N 04:36:11 27° WNW 04:40:25 10° WSW
NOSS 3-2 (C) 4.5 04:33:35 15° W 04:37:04 25° NW 04:42:19 10° NNE
Cosmos 1340 Rocket 3.5 04:33:35 10° S 04:37:26 58° E 04:41:21 10° NNE
Meteor 2-6 Rocket 4.4 04:33:05 10° NNW 04:38:16 46° W 04:43:22 10° SSW
DELTA 2 R/B (1) 3.8 04:33:18 10° WSW 04:38:48 69° S 04:44:19 10° E
Cosmos 1500 Rocket 4.0 04:34:53 10° S 04:39:17 69° E 04:43:44 10° NNE
Cosmos 2098 Rocket 4.1 04:37:54 10° WSW 04:40:58 23° WNW 04:44:38 10° NNW
ATLAS 3B R/B 3.3 04:38:44 10° SSW 04:45:05 61° ESE 04:51:44 10° NE
SL-27 R/B 2.9 04:42:08 10° NNW 04:45:43 65° ENE 04:49:13 10° SSE
Cosmos 1939 Rocket 2.8 04:42:10 10° NNE 04:46:07 89° WNW 04:50:00 10° SSW
Sich 1 4.5 04:48:58 10° SSE 04:53:00 41° E 04:57:01 10° NNE
H-2A R/B 2.0 04:49:29 10° S 04:53:41 75° WSW 04:58:03 10° NNW
Meteor 1-10 Rocket 4.4 04:48:57 10° NNW 04:54:16 48° W 04:59:32 10° SSW
Okean O Rocket 4.5 04:51:30 10° NE 04:54:57 22° E 04:58:21 10° SE
ATLAS 5 CENTAUR R/B 1.4 04:51:19 10° SSW 04:55:05 81° ESE 04:59:15 10° NE
Cosmos 1174 3.1 04:53:16 10° SSW 04:56:14 81° ESE 04:59:16 10° NNE
Cosmos 1833 4.5 04:52:51 10° NW 04:58:21 50° WSW 05:03:51 10° S
DNEPR-1 R/B 4.4 04:53:42 10° NW 04:58:30 49° WSW 05:04:13 10° SSE
ADEOS 4.2 04:55:06 10° N 04:59:45 34° WNW 05:04:23 10° SW
USA 215 3.7 04:59:08 10° SSE 05:05:26 51° SW 05:11:46 10° NW
CZ-2C R/B 3.4 05:03:23 10° N 05:07:53 39° WNW 05:12:35 10° SW
BREEZE-M DEB (TANK) 3.2 05:09:46 10° WSW 05:19:37 55° NNW 05:22:43 10° NE
